sat.trackr.live / text

‹ back to catalog

STARLINK-34067

NORAD 64115 · 2025-110V

PAYLOAD ACTIVE UNKNOWN

§ Identity

Operator
Country
US
Launch date
2025-05-23
Launch site
AFWTR
Launch vehicle
Mass (kg)
RCS (m²)

Purposes: comms

External: N2YO · Heavens-Above · Gunter

§ Orbital elements

Epoch: 2026-09-20T07:43:42.575520Z

Period
93.28 min
Inclination
53.1582°
Eccentricity
0.0006618
Mean motion
15.43782313 rev/d
Perigee alt
430.4 km
Apogee alt
439.5 km
Semi-major
6,813.1 km
B*
7.3640e-4
RAAN
196.1922°
Arg perigee
75.0330°
Mean anomaly
285.1409°
Rev number
7,577

§ Raw data

STARLINK-340671 64115U 25110V   26263.32202055  .00033592  00000+0  73640-3 0  99982 64115  53.1582 196.1922 0006618  75.0330 285.1409 15.43782313 75774

JSON: /api/v1/satellites/64115 · /tle

For live sub-satellite position, see the globe view (requires WebGL).

§ Visibility from observer

Set your observer location to see the next 7 days of passes ≥ 10°. The values pass through the URL so the page stays shareable.

No JS? Fill the form by hand. The geolocation button needs JavaScript.